Weather Roundup
Issued by NWS

Home | Current Version | Previous Version | Graphics & Text | Print | Product List | Glossary Off
Versions: 1 2 3 4 5 6 7 8 9 10 11 12 13 14 15 16 17 18 19 20 21 22 23 24 25 26 27 28 29 30 31 32 33 34 35 36 37 38 39 40 41 42 43 44 45 46 47 48 49 50

341
NZUS93 KARX 211510
HRRWXR

CURRENT HOURLY OBSERVATIONS ACROSS
MUCH OF THE UPPER MISSISSIPPI VALLEY
NATIONAL WEATHER SERVICE LA CROSSE WI
900 AM CST TUE FEB 21 2017


...SOUTHEAST MINNESOTA...


CITY           SKY/WX    TMP DP  RH WIND       PRES   REMARKS
ROCHESTER      SUNNY     35  35 100 S8        29.91F FOG     WCI  29
ROCHESTER/MAYO FAIR      35  35 100 CALM      29.92S
WINONA         SUNNY     37  37 100 CALM      29.94S
AUSTIN         FOG       36  34  93 S3        29.92F VSB 1/4
ALBERT LEA     SUNNY     39  39 100 S3        29.91F FOG
DODGE CENTER   SUNNY     37  37 100 S6        29.90F FOG     WCI  33
PRESTON        FOG       33  32  98 CALM      29.93S VSB<1/4
OWATONNA       SUNNY     39  36  87 S6        29.91R WCI  35
FARIBAULT      SUNNY     37  37 100 S7        29.90S FOG     WCI  32
$$

...ELSEWHERE IN MINNESOTA...


CITY           SKY/WX    TMP DP  RH WIND       PRES   REMARKS
MINNEAPOLIS    FOG       33  31  92 SE7       29.89F VSB 1/8 WCI  27
INTNL FALLS    CLOUDY    33  31  92 VRB7      29.77R FOG     WCI  27
DULUTH         FOG       34  34 100 W12       29.80F VSB 1/4 WCI  25
RED WING       FOG       34  34 100 CALM      29.92R VSB 1/4
REDWOOD FALLS  SUNNY     41  35  79 S10       29.81F
MANKATO          N/A     37  35  92 S10       29.89S WCI  30
WORTHINGTON    SUNNY     46  36  68 S22       29.86F
FAIRMONT       SUNNY     39  37  92 S8        29.91S WCI  33
$$

...SOUTHWEST WISCONSIN...


CITY           SKY/WX    TMP DP  RH WIND       PRES   REMARKS
LA CROSSE      MOSUNNY   41  38  89 SE5       29.94S
PRAIRIE DU CHI SUNNY     38  37  97 CALM      29.96S FOG
BOSCOBEL       FOG       39  38  96 W5        29.95S VSB 1/4
LONE ROCK      FOG       41  40  96 W3        29.95S VSB 1/4
PLATTEVILLE    SUNNY     42  42 100 NW5       29.95S
FORT MC COY    CLOUDY    40  38  94 CALM      29.95S
CAMP DOUGLAS   PTSUNNY   43  39  87 W3        29.93R
MAUSTON-NEW LI CLOUDY    43  40  89 CALM      29.93R
VIROQUA        PTSUNNY   39  39 100 CALM      29.93S
WIS DELLS      CLOUDY    42  40  91 W3        29.94R
$$

...ELSEWHERE IN WISCONSIN...


CITY           SKY/WX    TMP DP  RH WIND       PRES   REMARKS
MILWAUKEE      CLOUDY    55  48  77 W9        29.94R
MADISON        CLOUDY    44  43  96 W6        29.92F FOG
GREEN BAY      SUNNY     48  43  82 W10       29.90R
EAU CLAIRE     CLOUDY    37  35  92 S7        29.90S FOG     WCI  32
BLACK RVR FLS  CLOUDY    40  40 100 CALM      29.93S
MEDFORD        CLOUDY    35  34  97 SW5       29.88S FOG     WCI  31
WAUSAU         PTSUNNY   38  36  92 W7        29.88R WCI  33
WIS RAPIDS     PTSUNNY   42  39  89 W6        29.93R
MARSHFIELD     CLOUDY    38  36  92 W6        29.90R FOG     WCI  33
RICE LAKE      FOG       35  34  99 S3        29.90S VSB 1/4
$$

...NORTHEAST IOWA...


CITY           SKY/WX    TMP DP  RH WIND       PRES   REMARKS
WATERLOO       MOSUNNY   36  36 100 CALM      29.96F FOG
DUBUQUE        CLOUDY    45  40  82 N8        29.95S
DECORAH        FOG       34  34 100 CALM      29.93F VSB<1/4
MASON CITY     SUNNY     39  39 100 S6        29.95F WCI  35
CHARLES CITY   FOG       34  34 100 CALM      29.95S VSB<1/4
OELWEIN        FOG       32  32 100 CALM      29.95F VSB<1/4
$$

...ELSEWHERE IN IOWA...


CITY           SKY/WX    TMP DP  RH WIND       PRES   REMARKS
DES MOINES     MOSUNNY   45  42  89 S6        29.98S
IOWA CITY      MOSUNNY   47  43  86 W3        30.00R
FORT DODGE     SUNNY     39  37  93 S6        29.96F WCI  35
MARSHALLTOWN   FOG       34  34 100 S3        29.96F VSB 3/4
CEDAR RAPIDS   MOSUNNY   41  41 100 CALM      29.97R FOG
$$

...NORTHERN ILLINOIS...


CITY           SKY/WX    TMP DP  RH WIND       PRES   REMARKS
CHICAGO-OHARE  CLOUDY    57  53  86 W6        29.94R FOG
CHICAGO-MIDWAY CLOUDY    56  53  90 SW6       29.94R FOG
MOLINE         CLOUDY    53  45  74 CALM      29.95S
ROCKFORD       PTSUNNY   51  46  83 NW5       29.97R
PEORIA         CLOUDY    57  57 100 CALM      29.96S FOG
$$

NOTE: "FAIR" INDICATES FEW OR NO CLOUDS BELOW 12,000 FEET WITH NO
SIGNIFICANT WEATHER AND/OR OBSTRUCTIONS TO VISIBILITY. WIND
SPEEDS ARE IN MILES-PER-HOUR.




USA.gov is the U.S. government's official web portal to all federal, state and local government web resources and services.